Погода в Местечке Раифа

Россия / Республика Татарстан     55°54′11″N   48°43′44″E
темп.,
°C
ветер,
м/с
пор.,
м/с
влажн.,
%
обл.,
%
осадки,
мм/ч
давл.,
гПа
погр.,
м
27 февраля, сб
сб2700:00−12юв81594100 5.8 998555
03:00−11юв61094100 6.9 997318
06:00−10вюв5895100 0.9 996218
09:00−9в4695100 1.8 996223
12:00−8всв5794100 0.4 997344
15:00−8св6894100 0.9 999449
18:00−10ссв51093100 0.4 1001486
21:00−12ссв51093100 0.6 1003432
28 февраля, вс
вс2800:00−13с4109488 0.1 1005366
03:00−15с599483 0.1 1007263
06:00−19с499585 0.1 1009221
09:00−18с479363 0.1 1010262
12:00−14с478951 0.0 1011434
15:00−13с578971 0.0 1013546
18:00−19с349679 0.0 101556
21:00−21с239739 0.0 101722
1 марта, пн
пн100:00−22с23970 0.0 101921
03:00−23с23980 0.0 102020
06:00−23ссз22980 0.0 102120
09:00−19ссз12930 0.0 1023118
12:00−14зсз128533 0.0 1022310
15:00−12зюз349058 0.0 1022345
18:00−18юз339658 0.0 102030
21:00−19ююз349834 0.0 101959
2 марта, вт
вт200:00−18ююз489975 0.0 1016141
03:00−16ю599787 0.0 1012241
06:00−13ю51195100 0.7 1008348
09:00−9ююз61095100 1.8 1004419
12:00−4ююз6996100 0.9 1002453
15:000з47100100 1.9 1001497
18:00−2з489889 0.5 1001273
21:00−2ссз4109495 2.3 1002417
3 марта, ср
ср300:00−7ссз379495 0.0 100296
03:00−8ссз349688 0.0 100381
06:00−11ссз239684 0.0 100421
09:00−7сз249678 0.1 1005178
12:00−3ссз469397 0.3 1006532
15:00−2ссз589398 0.6 1007667
18:00−4ссз499397 0.2 1008248
21:00−5ссз4109590 0.3 1010302